ONEWEB-0295 (49084 NORAD) Tracking and Keplerian Element Data

This shows tracking and keplerian element data for the satellite.

Feedback or suggestion? Click here.




ElementValue
Catalog49084
NameONEWEB-0295
Epoch Orbit361
Epoch Day261.91667824
Epoch Year2021
RAAN356.5508
Inclination87.4147
Eccentricity0.0018576
Argument of Perigee197.6765
Mean Anonmoly272.1768
Mean Motion15.13486862
Decay Rate-0.01001994
L11 49084U 21075K 21261.91667824 -.01001994 00000-0 -60650-1 0 9999
L22 49084 87.4147 356.5508 0018576 197.6765 272.1768 15.13486862 3615

Live tracking and technical data element details for ONEWEB-0295 (NORAD 49084). ONEWEB-0295 can be tracked NOW for your location showing map with azimuth and elevation plus other details from your city location.

Track the satellite on the map from your city or location and see movement details for azimuth, elevation, latitude, longitude, range, height, and movement on the map or in text.







IsCatalogInMostPopularTable: catalog: 49084, numindb: 6
Update: records affected: 1



GetName: 49084 ONEWEB-0295

Hit Count: updated at: Fri, 24 Sep 2021 17:39:40 GMT